Location: Cella
(44.7333°N, 10.5667°E)
Time: 06:54:00
(UTC+00:00)

Gbstr 26 Del rocket - Pass Details

Date: 03 March 2021
Orbit: 492 x 1263 km, 51.8° (Epoch: 19 April)

Event Time Altitude Azimuth Distance (km) Brightness Sun altitude
Rises 18:07:46 0° 275° (W) 2,761 8.6 -11.4°
Reaches altitude 10° 18:09:58 10° 284° (WNW) 1,945 7.0 -11.8°
Maximum altitude 18:14:08 38° 354° (N) 1,035 4.3 -12.5°
Enters shadow 18:18:29 13° 59° (ENE) 2,124 5.3 -13.3°
